Regional Weather Roundup
Issued by NWS

Home | Current Version | Previous Version | Text Only | Print | Product List | Glossary On
Versions: 1 2 3 4 5 6 7 8 9 10 11 12 13 14 15 16 17 18 19 20 21 22 23 24 25 26 27 28 29 30 31 32 33 34 35 36 37 38 39 40 41 42 43 44 45 46 47 48 49 50
000
ASHW40 PHFO 261943
RWRHI

WEATHER ROUNDUP FOR HAWAII
NATIONAL WEATHER SERVICE HONOLULU HI
900 AM HST THU APR 26 2018

THIS IS AN AUTOMATED REPORT THAT HAS NOT BEEN QUALITY CONTROLLED.

NOTE..."FAIR" INDICATES FEW OR NO CLOUDS BELOW 12,000 FEET WITH NO
SIGNIFICANT WEATHER AND/OR OBSTRUCTIONS TO VISIBILITY.

* - THESE SITES REPORT LIMITED FIELDS
# - BUOY DATA PROVIDED BY PACIFIC ISLANDS OCEAN OBSERVING SYSTEM.

HIZ001>004-262000-
KAUAI-NIIHAU-

CITY           SKY/WX    TMP DP  RH WIND       PRES   REMARKS
LIHUE APT      PTSUNNY   78  69  73 NE14      30.12R
PORT ALLEN*      N/A     77 N/A N/A E16G23      N/A
POIPU*           N/A     75 N/A N/A NE7G14      N/A
PRINCEVILLE*     N/A     73 N/A N/A SE8G15      N/A
KOKOLE POINT*  NOT AVBL
MOLOAA DAIRY*    N/A     75  68  78 E6G14       N/A
WAIMEA HTS*      N/A     81  66  61 SW3         N/A
PUU OPAE*        N/A     72  57  60 S3          N/A
PUU LUA*       NOT AVBL
MAKAHA RIDGE*    N/A     72  63  73 W1          N/A
$$

HIZ005>011-262000-
OAHU-

CITY           SKY/WX    TMP DP  RH WIND       PRES   REMARKS
HONOLULU       MOSUNNY   78  66  66 E12G23    30.08R
KALAELOA       CLOUDY    79  66  64 NE8       30.09S
KANEOHE MCB    CLOUDY    75  69  81 E10G17    30.07R
WHEELER FIELD  PTSUNNY   73  67  80 CALM      30.09R
BELLOWS*         N/A    N/A N/A N/A NE17        N/A
KAHUKU*          N/A    N/A N/A N/A NE9G15      N/A
WHEELER*         N/A    N/A N/A N/A E7G13       N/A
WAIANAE HARBOR   N/A    N/A N/A N/A E8G15       N/A
DILLINGHAM*    NOT AVBL
KAHUKU TRN*      N/A     68  66  94 W9G21       N/A
KAWAILOA*        N/A     68  64  88 E12G17      N/A
KII*             N/A     73  68  83 E18         N/A
MAKUA RANGE*     N/A     72  57  60 E8G18       N/A
OAHU FOREST NW NOT AVBL
SCHOFIELD BRK*   N/A    N/A N/A N/A E1          N/A
SCHOFIELD S*   NOT AVBL
WAIANAE VLY*   NOT AVBL
KUAOKALA*        N/A     72  66  83 NE16        N/A
HONOULIUULI*   NOT AVBL
MOKUOLOE IS*   NOT AVBL
PALEHUA*         N/A     70  68  94 NE9G22      N/A
WAIAWA PHB*    NOT AVBL
$$

HIZ012>013-262000-
MOLOKAI-

CITY           SKY/WX    TMP DP  RH WIND       PRES   REMARKS
MOLOKAI AIRPT  CLOUDY    74  69  85 NE13G22   30.07S
KALAUPAPA      NOT AVBL
MAKAPULAPAI*     N/A     72  68  88 E17G23      N/A
MOLOKAI 1*     NOT AVBL
PUU ALII*        N/A     60  60  99 NE2         N/A
$$

HIZ016-262000-
KAHOOLAWE-

CITY           SKY/WX    TMP DP  RH WIND       PRES   REMARKS
KAHOOLAWE*     NOT AVBL
HAKIOAWA*        N/A     71  68  91 MISG      30.47S
HONOKANAIA*    NOT AVBL
KANELOA*         N/A     73  68  83 NE15G28     N/A
KEALIALALO*    NOT AVBL
LUA MAKIKA*    NOT AVBL
$$

HIZ014>015-262000-
LANAI-

CITY           SKY/WX    TMP DP  RH WIND       PRES   REMARKS
LANAI CITY     FAIR      73  66  78 N9        30.11R
LANAI 1*       NOT AVBL
$$

HIZ017>028-262000-
MAUI-

CITY           SKY/WX    TMP DP  RH WIND       PRES   REMARKS
KAHULUI        MOSUNNY   77  70  79 E3        30.05S
KAPALUA-W MAUI MOSUNNY   75  72  88 SE3       30.07S
HANA AIRPORT   NOT AVBL
HANA*            N/A     75 N/A N/A SE7G16      N/A
HALEAKALA SUMM   N/A     45  45 100 SE24        N/A
MAALAEA BAY*     N/A     77 N/A N/A N12G20      N/A
HALEAKALA*     NOT AVBL
KAUPO GAP*     NOT AVBL
KULA 1*          N/A     57  45  63 NW3         N/A
$$

HIZ023>026-262000-
BIG ISLAND OF HAWAII COAST AND LOWER SLOPES-

CITY           SKY/WX    TMP DP  RH WIND       PRES   REMARKS
KAILUA KONA    MOSUNNY   81  66  60 S9        30.03S
HILO           CLOUDY    72  70  94 SW5       30.09S
HONOKAA*         N/A     73 N/A N/A VRB1        N/A
KAWAIHAE MWT*    N/A     81 N/A N/A W6          N/A
KAWAIHAE*        N/A     77 N/A N/A W7        30.03S
SOUTH POINT*     N/A     70 N/A N/A N16G23      N/A
UPOLU AIRPORT* NOT AVBL
KAMUELA*       CLEAR     75  57  53 CALM      30.15R
HAKALAU*         N/A     59  55  85 S8G17       N/A
KALOKO-HONOKO*   N/A     82  68  61 SW6       30.03S
PALI 2*          N/A     66  64  94 E3G10       N/A
KEALAKOMO*       N/A     73  70  88 NE3G10      N/A
KAUPULEHU*       N/A     77  63  61 N6          N/A
KAPAPALA*        N/A     70  64  82 E5G16       N/A
LOWER KAHUKU*    N/A    N/A N/A N/A N3G13       N/A
PUHE CS*         N/A     79  63  57 W3          N/A
PUHO CS*         N/A     79  67  67 W1          N/A
PTA KEAMUKU*     N/A     68  57  68 W6          N/A
WAIKOLOA*        N/A     79  59  50 NW5         N/A
$$

HIZ027>028-262000-
BIG ISLAND OF HAWAII INTERIOR AND SUMMMITS-

CITY           SKY/WX    TMP DP  RH WIND       PRES   REMARKS
BRADSHAW FIELD CLOUDY    64  47  55 S13G20    30.33S
MK VISITOR CEN   N/A     50  43  76 E10         N/A
MAUNA KEA*       N/A     39  -9  12 W13         N/A
MAUNA LOA*       N/A     46   7  19 MISG        N/A
MAUNA LOA 1*   NOT AVBL
PTA KIPUKA*      N/A     70  54  56 NE5G12      N/A
PTA RANGE 17*    N/A     68  50  52 W13G22      N/A
PTA WEST*        N/A     66  55  68 NW8         N/A
NENE CABIN*      N/A     55  54  94 E8G15       N/A
AHUMOA*          N/A     61  55  80 NW5         N/A
PTA PORTABLE*  NOT AVBL
PUU MALI*        N/A     61  46  59 NW5         N/A
$$

HIC003-262000-
NORTHWEST ISLANDS-

CITY           SKY/WX    TMP DP  RH WIND       PRES   REMARKS
MIDWAY ISLAND    N/A     66  63  88 NE16      30.36R
MIDWAY NOS*      N/A     66 N/A N/A MISG      30.34R
FRENCH FRIGATE NOT AVBL
$$

PHZ110>124-180-262000-
BUOY REPORTS

STATION/POSITION TIME  TEMP    WIND        PRES    WAVE   SWELL
                       AIR SEA DIR/SP/G            HT/PER HT/DIR
                 (UTC) (F)     (DEG/KT/KT) (MB)    (FT/S) (FT/D)
BUOY 51001       1910   80 81   70/ 19/ 25 1012.6
BUOY 51101       1850   72 74  100/ 16/ 19 1020.9R   8/ 8   5
BUOY 51100       NOT AVBL
BUOY 51002       1910   78 78   70/ 16/ 19 1016.5
BUOY 51003       1850   76 79   80/ 14/ 19 1016.9R   7/ 8   5/ 70
BUOY 51004       1910   77 78  100/ 19/ 23   N/A
WAIMEA BAY#      NOT AVBL
MOKAPU POINT#    1904      75                N/A     9/ 9   2/ 60
LANAI#           NOT AVBL
BARBERS PT 2#    NOT AVBL
PAUWELA#         1900      75                N/A     8/ 8   2/340
HILO#            1857      76                N/A     8/ 8   2/ 70
KANEOHE BAY#     NOT AVBL
KANEOHE BAY 2#   NOT AVBL
HANALEI#         1852      77                N/A     7/ 8   2/ 70
KAHULUI HARBOR   1912   76 77   50/  6/ 11 1017.6
HONOLULU HARBOR  1912   76 77   90/  5/ 11 1018.0
PEARL HARBOR#    1900      77                N/A     3/14   2/160
KILO NALU        NOT AVBL
HILO HARBOR      1912   71 76  220/  6/  8 1018.5
MOKUOLOE         1836   75 77   90/  7/ 13 1018.8R
NAWILIWILI       1912   75 78   60/  9/ 13 1019.4
WHOTS BUOY       NOT AVBL
BUOY 51028       NOT AVBL
$$

......................KEY........................................
  SKY/WX - SKY CONDITIONS/PRESENT WEATHER
  TMP    - TEMPERATURE IN FAHRENHEIT
  DWPT   - DEWPOINT IN FAHRENHEIT
  RH     - RELATIVE HUMIDITY IN PERCENT
  WIND   - DIRECTION AND SPEED /MPH FOR ISLANDS...KTS FOR BUOYS/
  PRES   - MEAN SEA LEVEL PRESSURE IN INCHES OF HG
  VSB    - VISIBILITY IN MILES
  HX     - HEAT INDEX
  WCI    - WIND CHILL INDEX
  VRB    - VARIABLE WIND DIRECTION
  N/A    - NOT AVAILABLE




USA.gov is the U.S. government's official web portal to all federal, state and local government web resources and services.